Location: Bégole
(43.1574°N, 0.3291°E)
Time: 12:10:16
(UTC+00:00)

Cosmos 1980 Rocket - Pass Details

Date: 28 January 2023
Orbit: 828 x 851 km, 71.0° (Epoch: 19 March)

Event Time Altitude Azimuth Distance (km) Brightness Sun altitude
Rises 18:30:18 0° 218° (SW) 3,373 6.1 -15.6°
Reaches altitude 10° 18:32:48 10° 223° (SW) 2,446 5.4 -16.1°
Maximum altitude 18:38:16 52° 300° (WNW) 1,041 3.0 -17.0°
Drops below altitude 10° 18:43:48 10° 16° (NNE) 2,476 4.4 -18.0°
Enters shadow 18:45:15 - 20° (NNE) 3,007 4.8 -18.3°
